DAL6 PHNL-KLAX

Flight info

Callsign DAL6
Flight time N/A
Altitude 37000
Route MKK5 KOLEA CLUTS R465 CIVIT/N0479F390 R585 GITLE ADUMM GALIP R585 AUDIA SNAXX RYDRR2
Aircraft A35K/H-SDE2E3GHIJ3J4J5LM1ORWXY/LB1D1

Departure

Time N/A
Airport Daniel K. Inouye International Airport (PHNL)

Arrival

Time 2026-04-25 22:14
Airport Los Angeles International Airport (KLAX)
Time Latitude Longitude Altitude Speed Heading
2026-04-25 21:29 34.17096 -123.53474 38990 ft 540 kts 79°
2026-04-25 21:29 34.17883 -123.49042 38996 ft 540 kts 79°
2026-04-25 21:30 34.19448 -123.40195 38995 ft 540 kts 79°
2026-04-25 21:30 34.20746 -123.32825 39001 ft 540 kts 79°
2026-04-25 21:31 34.22538 -123.22610 38994 ft 540 kts 79°
2026-04-25 21:31 34.24063 -123.13871 38995 ft 540 kts 79°
2026-04-25 21:32 34.24666 -123.04886 38997 ft 535 kts 95°
2026-04-25 21:32 34.24321 -122.95904 38993 ft 535 kts 96°
2026-04-25 21:33 34.23924 -122.86919 38987 ft 535 kts 96°
2026-04-25 21:33 34.23517 -122.77930 38989 ft 536 kts 96°
2026-04-25 21:34 34.23103 -122.68939 38991 ft 536 kts 96°
2026-04-25 21:34 34.22684 -122.59995 38986 ft 536 kts 97°
2026-04-25 21:35 34.22256 -122.50989 38986 ft 536 kts 97°
2026-04-25 21:35 34.21822 -122.41987 38988 ft 536 kts 97°
2026-04-25 21:36 34.21381 -122.32994 38985 ft 537 kts 97°
2026-04-25 21:36 34.20932 -122.23981 38987 ft 537 kts 97°
2026-04-25 21:37 34.20631 -122.17998 38991 ft 538 kts 97°
2026-04-25 21:37 34.20064 -122.06893 38992 ft 538 kts 97°
2026-04-25 21:38 34.19595 -121.97863 38987 ft 539 kts 97°
2026-04-25 21:38 34.19120 -121.88830 38985 ft 539 kts 97°
2026-04-25 21:39 34.18637 -121.79791 38980 ft 539 kts 98°
2026-04-25 21:39 34.18148 -121.70746 38985 ft 540 kts 98°
2026-04-25 21:40 34.17651 -121.61682 38987 ft 540 kts 98°
2026-04-25 21:40 34.17149 -121.52635 38786 ft 538 kts 98°
2026-04-25 21:41 34.16895 -121.48123 38546 ft 540 kts 98°
2026-04-25 21:41 34.16639 -121.43599 38272 ft 541 kts 98°
2026-04-25 21:41 34.16381 -121.39062 37997 ft 541 kts 98°
2026-04-25 21:41 34.16121 -121.34527 37725 ft 542 kts 98°
2026-04-25 21:42 34.15948 -121.31516 37549 ft 542 kts 98°
2026-04-25 21:42 34.15600 -121.25499 37126 ft 540 kts 98°
2026-04-25 21:42 34.15338 -121.20990 36496 ft 538 kts 99°
2026-04-25 21:42 34.15074 -121.16489 35816 ft 538 kts 99°
2026-04-25 21:43 34.14806 -121.11980 35088 ft 538 kts 99°
2026-04-25 21:43 34.14629 -121.08993 34569 ft 539 kts 99°
2026-04-25 21:43 34.14358 -121.04467 33702 ft 540 kts 99°
2026-04-25 21:43 34.14093 -120.99952 32784 ft 541 kts 99°
2026-04-25 21:44 34.14141 -120.95370 31938 ft 546 kts 90°
2026-04-25 21:44 34.14485 -120.90786 31026 ft 548 kts 89°
2026-04-25 21:44 34.15259 -120.81599 28985 ft 549 kts 89°
2026-04-25 21:45 34.15637 -120.77029 28205 ft 544 kts 89°
2026-04-25 21:45 34.15883 -120.74022 27723 ft 540 kts 89°
2026-04-25 21:45 34.16368 -120.68045 26791 ft 531 kts 89°
2026-04-25 21:45 34.16717 -120.63687 26107 ft 525 kts 89°
2026-04-25 21:46 34.17064 -120.59327 25408 ft 519 kts 89°
2026-04-25 21:46 34.17406 -120.55003 24729 ft 514 kts 89°
2026-04-25 21:46 34.17743 -120.50729 24040 ft 509 kts 89°
2026-04-25 21:46 34.18074 -120.46501 23340 ft 503 kts 89°
2026-04-25 21:47 34.18401 -120.42309 22593 ft 497 kts 89°
2026-04-25 21:47 34.18721 -120.38188 21930 ft 489 kts 88°
2026-04-25 21:47 34.19035 -120.34124 21274 ft 482 kts 88°
2026-04-25 21:47 34.19337 -120.30122 20744 ft 472 kts 89°
2026-04-25 21:48 34.19510 -120.26205 20490 ft 466 kts 91°
2026-04-25 21:48 34.19629 -120.22291 20197 ft 466 kts 91°
2026-04-25 21:48 34.19754 -120.18397 19950 ft 459 kts 91°
2026-04-25 21:48 34.19888 -120.14605 19712 ft 444 kts 91°
2026-04-25 21:49 34.20019 -120.10933 19464 ft 431 kts 91°
2026-04-25 21:49 34.20148 -120.07372 19224 ft 418 kts 91°
2026-04-25 21:49 34.20236 -120.03918 18944 ft 406 kts 94°
2026-04-25 21:49 34.20182 -120.00536 18534 ft 399 kts 96°
2026-04-25 21:50 34.20105 -119.97210 18190 ft 392 kts 95°
2026-04-25 21:50 34.20040 -119.93985 17924 ft 388 kts 95°
2026-04-25 21:50 34.19981 -119.90720 17619 ft 388 kts 95°
2026-04-25 21:50 34.19928 -119.87463 17398 ft 387 kts 95°
2026-04-25 21:51 34.19879 -119.84214 17166 ft 386 kts 95°
2026-04-25 21:51 34.19831 -119.80972 16916 ft 385 kts 95°
2026-04-25 21:51 34.19784 -119.77738 16656 ft 384 kts 95°
2026-04-25 21:51 34.19737 -119.74521 16407 ft 383 kts 95°
2026-04-25 21:52 34.19689 -119.71304 16147 ft 382 kts 94°
2026-04-25 21:52 34.19641 -119.68107 15895 ft 381 kts 94°
2026-04-25 21:52 34.19593 -119.64919 15636 ft 379 kts 94°
2026-04-25 21:52 34.19544 -119.61773 15388 ft 378 kts 94°
2026-04-25 21:53 34.19494 -119.58602 15136 ft 377 kts 94°
2026-04-25 21:53 34.19443 -119.55439 14886 ft 376 kts 94°
2026-04-25 21:53 34.19392 -119.52284 14640 ft 374 kts 94°
2026-04-25 21:53 34.19340 -119.49145 14390 ft 373 kts 94°
2026-04-25 21:54 34.19288 -119.46021 14133 ft 371 kts 94°
2026-04-25 21:54 34.19234 -119.42907 13890 ft 369 kts 94°
2026-04-25 21:54 34.19181 -119.39855 13635 ft 367 kts 93°
2026-04-25 21:54 34.19129 -119.36780 13376 ft 365 kts 94°
2026-04-25 21:55 34.19079 -119.33724 13156 ft 363 kts 94°
2026-04-25 21:55 34.19031 -119.30683 12907 ft 361 kts 94°
2026-04-25 21:55 34.18983 -119.27654 12667 ft 359 kts 94°
2026-04-25 21:55 34.18933 -119.24651 12432 ft 357 kts 94°
2026-04-25 21:56 34.18884 -119.21657 12194 ft 356 kts 94°
2026-04-25 21:56 34.18850 -119.19677 12042 ft 354 kts 94°
2026-04-25 21:56 34.18782 -119.15717 11723 ft 352 kts 94°
2026-04-25 21:56 34.18731 -119.12790 11530 ft 344 kts 94°
2026-04-25 21:57 34.18683 -119.09944 11328 ft 332 kts 94°
2026-04-25 21:57 34.18596 -119.07213 11104 ft 319 kts 99°
2026-04-25 21:57 34.18019 -119.04697 10923 ft 303 kts 117°
2026-04-25 21:57 34.17136 -119.02406 10849 ft 301 kts 120°
2026-04-25 21:58 34.16223 -119.00122 10785 ft 302 kts 119°
2026-04-25 21:58 34.15316 -118.97838 10717 ft 301 kts 119°
2026-04-25 21:58 34.14418 -118.95559 10640 ft 301 kts 119°
2026-04-25 21:58 34.13522 -118.93276 10567 ft 300 kts 119°
2026-04-25 21:59 34.12628 -118.91000 10484 ft 300 kts 119°
2026-04-25 21:59 34.11738 -118.88728 10416 ft 299 kts 118°
2026-04-25 21:59 34.10847 -118.86455 10336 ft 299 kts 119°
2026-04-25 22:00 34.08953 -118.81664 10213 ft 357 kts 118°
2026-04-25 22:00 34.07845 -118.78858 10211 ft 379 kts 118°
2026-04-25 22:00 34.06708 -118.75962 10151 ft 384 kts 118°
2026-04-25 22:00 34.05563 -118.73051 9981 ft 383 kts 118°
2026-04-25 22:01 34.04428 -118.70172 9838 ft 371 kts 118°
2026-04-25 22:01 34.03348 -118.67428 9663 ft 353 kts 117°
2026-04-25 22:01 34.02323 -118.64821 9501 ft 335 kts 117°
2026-04-25 22:01 34.01674 -118.63165 9381 ft 325 kts 117°
2026-04-25 22:02 34.00424 -118.59969 9181 ft 306 kts 117°
2026-04-25 22:02 33.99534 -118.57689 9024 ft 296 kts 118°
2026-04-25 22:02 33.98753 -118.55409 8863 ft 295 kts 109°
2026-04-25 22:02 33.98467 -118.52962 8690 ft 298 kts 89°
2026-04-25 22:03 33.98816 -118.50503 8541 ft 298 kts 77°
2026-04-25 22:03 33.99325 -118.48086 8389 ft 298 kts 76°
2026-04-25 22:03 33.99850 -118.45667 8234 ft 298 kts 76°
2026-04-25 22:03 34.00369 -118.43297 8089 ft 297 kts 76°
2026-04-25 22:04 34.00898 -118.40891 7937 ft 296 kts 76°
2026-04-25 22:04 34.01431 -118.38491 7791 ft 296 kts 76°
2026-04-25 22:04 34.01960 -118.36098 7633 ft 295 kts 76°
2026-04-25 22:04 34.02486 -118.33705 7483 ft 294 kts 76°
2026-04-25 22:05 34.03007 -118.31320 7348 ft 293 kts 76°
2026-04-25 22:05 34.03422 -118.28913 7197 ft 292 kts 82°
2026-04-25 22:05 34.03715 -118.26499 7044 ft 290 kts 83°
2026-04-25 22:05 34.03986 -118.24087 6878 ft 290 kts 83°
2026-04-25 22:06 34.04254 -118.21680 6459 ft 290 kts 83°
2026-04-25 22:06 34.04519 -118.19277 6073 ft 287 kts 83°
2026-04-25 22:06 34.04780 -118.16934 5987 ft 280 kts 83°
2026-04-25 22:06 34.05035 -118.14632 5983 ft 280 kts 83°
2026-04-25 22:07 34.05293 -118.12306 5986 ft 280 kts 84°
2026-04-25 22:07 34.05468 -118.10738 5985 ft 280 kts 84°
2026-04-25 22:07 34.05799 -118.07666 5988 ft 279 kts 85°
2026-04-25 22:07 34.05619 -118.05362 5988 ft 276 kts 110°
2026-04-25 22:08 34.04645 -118.03417 5990 ft 271 kts 136°
2026-04-25 22:08 34.03080 -118.02219 5964 ft 265 kts 162°
2026-04-25 22:08 34.01290 -118.01971 5584 ft 260 kts 188°
2026-04-25 22:08 33.99613 -118.02738 5132 ft 261 kts 214°
2026-04-25 22:09 33.98416 -118.04370 4756 ft 263 kts 241°
2026-04-25 22:09 33.97899 -118.06470 4429 ft 263 kts 260°
2026-04-25 22:09 33.97712 -118.08660 4381 ft 265 kts 266°
2026-04-25 22:09 33.97833 -118.10890 4386 ft 266 kts 276°
2026-04-25 22:10 33.97916 -118.13105 4388 ft 264 kts 265°
2026-04-25 22:10 33.97842 -118.15320 4384 ft 264 kts 267°
2026-04-25 22:10 33.97824 -118.17526 4398 ft 264 kts 271°
2026-04-25 22:10 33.98159 -118.19704 4399 ft 266 kts 288°
2026-04-25 22:11 33.98612 -118.21821 4403 ft 265 kts 270°
2026-04-25 22:11 33.98189 -118.23959 4396 ft 257 kts 243°
2026-04-25 22:11 33.97400 -118.25756 4222 ft 237 kts 239°
2026-04-25 22:11 33.96654 -118.27441 3943 ft 219 kts 248°
2026-04-25 22:12 33.96320 -118.29157 3701 ft 203 kts 260°
2026-04-25 22:12 33.96146 -118.30810 3542 ft 194 kts 262°
2026-04-25 22:12 33.95999 -118.32349 3302 ft 178 kts 262°
2026-04-25 22:12 33.95904 -118.33333 3015 ft 173 kts 261°
2026-04-25 22:13 33.95714 -118.35274 2100 ft 181 kts 261°
2026-04-25 22:13 33.95568 -118.36787 1358 ft 184 kts 262°
2026-04-25 22:13 33.95427 -118.38297 757 ft 179 kts 261°
2026-04-25 22:13 33.95269 -118.39758 258 ft 172 kts 258°
2026-04-25 22:14 33.95113 -118.41082 126 ft 134 kts 263°
2026-04-25 22:14 33.95028 -118.41925 132 ft 68 kts 263°
2026-04-25 22:14 33.94986 -118.42361 129 ft 47 kts 263°
2026-04-25 22:14 33.94927 -118.42573 129 ft 22 kts 233°
2026-04-25 22:15 33.94832 -118.42699 130 ft 20 kts 220°
2026-04-25 22:15 33.94723 -118.42768 128 ft 15 kts 194°
2026-04-25 22:15 33.94645 -118.42732 128 ft 13 kts 115°
2026-04-25 22:16 33.94651 -118.42540 132 ft 13 kts 83°
2026-04-25 22:16 33.94662 -118.42437 124 ft 13 kts 82°
2026-04-25 22:16 33.94676 -118.42310 127 ft 17 kts 82°
2026-04-25 22:16 33.94691 -118.42169 128 ft 16 kts 83°
2026-04-25 22:17 33.94706 -118.42026 132 ft 18 kts 83°
2026-04-25 22:17 33.94721 -118.41866 132 ft 18 kts 83°
2026-04-25 22:17 33.94736 -118.41713 132 ft 19 kts 83°
2026-04-25 22:17 33.94755 -118.41543 132 ft 21 kts 82°
2026-04-25 22:18 33.94774 -118.41411 126 ft 14 kts 76°
2026-04-25 22:18 33.94794 -118.41285 132 ft 13 kts 81°
2026-04-25 22:18 33.94809 -118.41159 128 ft 16 kts 82°
2026-04-25 22:18 33.94823 -118.41017 129 ft 17 kts 84°
2026-04-25 22:19 33.94829 -118.40934 124 ft 8 kts 88°
2026-04-25 22:19 33.94820 -118.40902 126 ft 2 kts 118°
2026-04-25 22:19 33.94803 -118.40888 130 ft 4 kts 158°
2026-04-25 22:19 33.94770 -118.40893 129 ft 6 kts 199°
2026-04-25 22:20 33.94726 -118.40908 130 ft 8 kts 189°
2026-04-25 22:20 33.94678 -118.40909 129 ft 6 kts 178°
2026-04-25 22:20 33.94633 -118.40906 127 ft 7 kts 174°
2026-04-25 22:20 33.94581 -118.40901 128 ft 6 kts 185°
2026-04-25 22:21 33.94552 -118.40940 124 ft 7 kts 255°
2026-04-25 22:21 33.94546 -118.40982 124 ft 6 kts 261°
2026-04-25 22:21 33.94545 -118.40988 124 ft 0 kts 261°